Weather History for Keene, NH

Change the Weather History Date:

Wednesday, January 16, 2013

  Actual Average Record
Temperature  
Mean Temperature 29 °F -  
Max Temperature 30 °F 29 °F 59 °F (1995)
Min Temperature 28 °F 6 °F -20 °F (2009)
Degree Days  
Heating Degree Days 36    
Moisture  
Dew Point 27 °F    
Average Humidity 91    
Maximum Humidity 93    
Minimum Humidity 80    
Precipitation  
Precipitation 0.25 in - - ()
Sea Level Pressure  
Sea Level Pressure 29.97 in    
Wind  
Wind Speed 0 mph (NNW)    
Max Wind Speed 5 mph    
Max Gust Speed -    
Visibility 5 miles    
Events      
Averages and records for this station are not official NWS values.
T = Trace of Precipitation, MM = Missing Value Source: NWS Daily Summary

Daily Weather History Graph

Daily Weather History Graph

Search for Another Location

Airport:

Trip Planner

Search our weather history database for the weather conditions in past years. The results will help you decide how hot, cold, wet, or windy it might be!

Date:

Astronomy

Jan. 16, 2013 Rise Set
Actual Time 7:16 AM EST 4:41 PM EST
Civil Twilight 6:45 AM EST 5:12 PM EST
Nautical Twilight 6:10 AM EST 5:47 PM EST
Astronomical Twilight 5:36 AM EST 6:21 PM EST
Moon 9:42 AM EST (1/16) 10:40 PM EST (1/16)
Length of Visible Light 10h 27m
Length of Day
9h 25m
Waxing Crescent, 28% of the Moon is Illuminated
Jan 16
Waxing Crescent
Jan 18
First Quarter
Jan 26
Full
Feb 3
Last Quarter
Feb 10
New

Hourly Weather History & Observations

Time (EST) Temp. Windchill Dew Point Humidity Pressure Visibility Wind Dir Wind Speed Gust Speed Precip Events Conditions
12:15 AM 28.4 °F - 24.8 °F 86% 30.22 in 10.0 mi Calm Calm - N/A   Clear
1:15 AM 28.4 °F - 24.8 °F 86% 30.22 in 10.0 mi Calm Calm - N/A   Partly Cloudy
1:35 AM 28.4 °F - 23.0 °F 80% 30.20 in 10.0 mi Calm Calm - N/A   Partly Cloudy
1:55 AM 28.4 °F - 24.8 °F 86% 30.21 in 10.0 mi Calm Calm - N/A   Scattered Clouds
2:15 AM 28.4 °F - 24.8 °F 86% 30.22 in 10.0 mi Calm Calm - N/A   Mostly Cloudy
2:35 AM 28.4 °F - 24.8 °F 86% 30.23 in 10.0 mi Calm Calm - N/A   Mostly Cloudy
3:15 AM 28.4 °F - 24.8 °F 86% 30.19 in 10.0 mi Calm Calm - N/A   Mostly Cloudy
3:35 AM 28.4 °F - 24.8 °F 86% 30.17 in 10.0 mi Calm Calm - N/A   Overcast
3:55 AM 28.4 °F - 24.8 °F 86% 30.16 in 10.0 mi Calm Calm - N/A   Overcast
4:15 AM 28.4 °F - 24.8 °F 86% 30.16 in 2.5 mi Calm Calm - N/A   Overcast
4:35 AM 28.4 °F - 24.8 °F 86% 30.15 in 1.2 mi Calm Calm - N/A   Overcast
4:55 AM 28.4 °F - 24.8 °F 86% 30.14 in 1.5 mi Calm Calm - N/A   Overcast
5:35 AM 28.4 °F - 26.6 °F 93% 30.12 in 1.0 mi Calm Calm - N/A   Overcast
5:55 AM 28.4 °F - 26.6 °F 93% 30.12 in 1.0 mi Calm Calm - N/A   Overcast
6:15 AM 28.4 °F - 26.6 °F 93% 30.12 in 1.2 mi Calm Calm - N/A   Overcast
6:35 AM 28.4 °F - 26.6 °F 93% 30.12 in 1.5 mi Calm Calm - 0.01 in   Overcast
6:55 AM 28.4 °F - 26.6 °F 93% 30.12 in 2.5 mi Calm Calm - 0.01 in   Overcast
7:35 AM 28.4 °F - 26.6 °F 93% 30.10 in 1.2 mi Calm Calm - 0.01 in   Overcast
8:15 AM 28.4 °F - 26.6 °F 93% 30.08 in 0.5 mi Calm Calm - N/A   Overcast
8:35 AM 28.4 °F - 26.6 °F 93% 30.08 in 0.8 mi Calm Calm - N/A   Overcast
8:55 AM 28.4 °F 23.3 °F 26.6 °F 93% 30.07 in 0.8 mi North 4.6 mph - N/A   Overcast
9:15 AM 28.4 °F 23.3 °F 26.6 °F 93% 30.05 in 1.0 mi North 4.6 mph - N/A   Overcast
9:35 AM 28.4 °F 24.6 °F 26.6 °F 93% 30.02 in 1.0 mi North 3.5 mph - N/A   Overcast
9:55 AM 28.4 °F 24.6 °F 26.6 °F 93% 30.00 in 1.0 mi North 3.5 mph - 0.03 in   Overcast
10:35 AM 28.4 °F 24.6 °F 26.6 °F 93% 30.02 in 0.8 mi NNW 3.5 mph - 0.02 in   Overcast
10:55 AM 28.4 °F - 26.6 °F 93% 29.97 in 1.0 mi Calm Calm - 0.03 in   Overcast
11:15 AM 30.2 °F 26.7 °F 28.4 °F 93% 29.96 in 2.0 mi NNW 3.5 mph - N/A   Overcast
11:35 AM 30.2 °F 26.7 °F 28.4 °F 93% 29.94 in 2.0 mi NNW 3.5 mph - N/A   Overcast
11:55 AM 30.2 °F 25.4 °F 26.6 °F 86% 29.94 in 1.2 mi NNW 4.6 mph - 0.01 in   Overcast
12:15 PM 30.2 °F 26.7 °F 28.4 °F 93% 29.93 in 1.2 mi NNW 3.5 mph - 0.01 in   Overcast
12:55 PM 30.2 °F - 28.4 °F 93% 29.92 in 0.8 mi Calm Calm - 0.01 in   Overcast
1:15 PM 30.2 °F - 28.4 °F 93% 29.91 in 1.2 mi Calm Calm - 0.01 in   Overcast
1:35 PM 30.2 °F - 28.4 °F 93% 29.83 in 1.8 mi Calm Calm - 0.02 in   Overcast
1:55 PM 30.2 °F - 28.4 °F 93% 29.83 in 1.8 mi Calm Calm - 0.04 in   Overcast
2:15 PM 30.2 °F - 28.4 °F 93% 29.87 in 1.0 mi Calm Calm - 0.02 in   Overcast
2:35 PM 30.2 °F - 28.4 °F 93% 29.87 in 2.0 mi Calm Calm - 0.03 in   Overcast
3:15 PM 30.2 °F - 28.4 °F 93% 29.86 in 1.0 mi Calm Calm - N/A   Overcast
3:35 PM 30.2 °F - 28.4 °F 93% 29.85 in 1.5 mi Calm Calm - N/A   Overcast
3:55 PM 30.2 °F - 28.4 °F 93% 29.85 in 2.0 mi Calm Calm - N/A   Overcast
4:15 PM 30.2 °F - 28.4 °F 93% 29.85 in 3.0 mi Calm Calm - N/A   Overcast
4:35 PM 30.2 °F - 28.4 °F 93% 29.84 in 7.0 mi Calm Calm - N/A   Overcast
4:55 PM 30.2 °F - 28.4 °F 93% 29.85 in 8.0 mi Calm Calm - 0.03 in   Overcast
5:35 PM 30.2 °F - 28.4 °F 93% 29.84 in 5.0 mi Calm Calm - 0.02 in   Overcast
5:55 PM 30.2 °F - 28.4 °F 93% 29.83 in 10.0 mi Calm Calm - 0.02 in   Overcast
6:15 PM 30.2 °F - 26.6 °F 86% 29.82 in 10.0 mi Calm Calm - 0.01 in   Overcast
6:35 PM 30.2 °F - 28.4 °F 93% 29.83 in 7.0 mi Calm Calm - 0.01 in   Overcast
7:15 PM 30.2 °F - 28.4 °F 93% 29.83 in 6.0 mi Calm Calm - N/A   Overcast
7:55 PM 30.2 °F - 28.4 °F 93% 29.83 in 8.0 mi Calm Calm - N/A   Overcast
8:15 PM 30.2 °F - 28.4 °F 93% 29.83 in 10.0 mi Calm Calm - N/A   Overcast
8:35 PM 30.2 °F - 28.4 °F 93% 29.83 in 10.0 mi Calm Calm - N/A   Overcast
8:55 PM 30.2 °F - 28.4 °F 93% 29.83 in 5.0 mi Calm Calm - N/A   Overcast
9:15 PM 30.2 °F - 28.4 °F 93% 29.82 in 8.0 mi Calm Calm - 0.01 in   Overcast
9:35 PM 30.2 °F - 28.4 °F 93% 29.81 in 8.0 mi Calm Calm - 0.01 in   Overcast
9:55 PM 30.2 °F - 28.4 °F 93% 29.82 in 7.0 mi Calm Calm - 0.01 in   Overcast
10:35 PM 30.2 °F - 28.4 °F 93% 29.82 in 8.0 mi Calm Calm - N/A   Overcast
10:55 PM 30.2 °F - 28.4 °F 93% 29.82 in 9.0 mi Calm Calm - N/A   Overcast
11:15 PM 30.2 °F - 28.4 °F 93% 29.82 in 10.0 mi Calm Calm - 0.01 in   Overcast
11:35 PM 30.2 °F 26.7 °F 28.4 °F 93% 29.82 in 10.0 mi SW 3.5 mph - 0.01 in   Overcast
11:55 PM 30.2 °F - 28.4 °F 93% 29.82 in 10.0 mi Calm Calm - 0.01 in   Overcast